Regional Weather Roundup
Issued by NWS

Home | Current Version | Previous Version | Graphics & Text | Print | Product List | Glossary On
Versions: 1 2 3 4 5 6 7 8 9 10 11 12 13 14 15 16 17 18 19 20 21 22 23 24 25 26 27 28 29 30 31 32 33 34 35 36 37 38 39 40 41 42 43 44 45 46 47 48 49 50
000
ASUS45 KABQ 290101
RWRNM
NEW MEXICO REGIONAL WEATHER ROUNDUP
NATIONAL WEATHER SERVICE ALBUQUERQUE NM
700 PM MDT WED JUN 28 2017

NOTE: "FAIR" MEANS FEW OR NO CLOUDS BELOW 12,000 FEET AGL WITH NO
       SIGNIFICANT WEATHER OR OBSTRUCTIONS TO VISION.

      THIS PRODUCT IS RELEASED AS TWO VERSIONS.  ONE VERSION NEAR
      THE TOP OF THE HOUR CONTAINING PRELIMINARY DATA FROM ALBUQUERQUE
      AND OTHER STATIONS.  A FINAL VERSION WITH ADDITIONAL DATA IS
      ISSUED ABOUT 10 MINUTES AFTER THE HOUR.

NMZ501-503-504-510>518-290200-
NORTHWEST PLATEAU/NORTHCENTRAL MOUNTAINS

CITY           SKY/WX    TMP DP  RH WIND       PRES   REMARKS
FARMINGTON     FAIR      90   6   4 W16G23    29.89F
LOS ALAMOS     FAIR      84  11   6 W12       30.07S
SANTA FE       FAIR      89   4   4 W18       29.98S
TAOS           FAIR      84  23  10 W13       30.04R
ANGEL FIRE     FAIR      74  21  14 W14       30.14S

$$
NMZ402-403-502-505>509-290200-
WESTCENTRAL MOUNTAINS/SOUTHWEST MOUNTAINS

CITY           SKY/WX    TMP DP  RH WIND       PRES   REMARKS
GALLUP         FAIR      87  12   6 W17G32    30.04R
GRANTS         FAIR      87  17   7 W15G24    30.06R
SILVER CITY    FAIR      89  24   9 W15       30.02S

$$
NMZ407-409-411-412-290200-
SOUTHERN DESERTS

CITY           SKY/WX    TMP DP  RH WIND       PRES   REMARKS
DEMING         FAIR      96  24   7 W17G28    29.91S
LAS CRUCES     FAIR      96  21   6 SW17G23   29.91S
HOLLOMAN AFB   FAIR      99  13   4 CALM      29.87S
ALAMOGORDO     FAIR      97  18   5 W8        29.87F
T OR C         FAIR      98  19   6 W8        29.88F

$$
NMZ519>523-290200-
CENTRAL VALLEYS/CENTRAL HIGHLANDS

CITY           SKY/WX    TMP DP  RH WIND       PRES   REMARKS
ALBUQUERQUE    FAIR      93   6   4 W12       29.92S
MORIARTY ARPT  FAIR      91  18   7 W14       30.00F
CLINES CORNERS FAIR      84  12   6 W23G31    30.06S
BELEN          FAIR      95  12   5 W21       29.91S
SOCORRO        FAIR      95  21   7 SE7       29.88S

$$
NMZ524>526-539-540-290200-
SOUTHCENTRAL MOUNTAINS

CITY           SKY/WX    TMP DP  RH WIND       PRES   REMARKS
RUIDOSO        FAIR      81  18   9 W10       30.12R

$$
NMZ527>531-290200-
NORTHEAST HIGHLANDS/NORTHEAST PLAINS

CITY           SKY/WX    TMP DP  RH WIND       PRES   REMARKS
LAS VEGAS      LGT RAIN  85   9   5 SW23G31   30.00S
RATON          FAIR      88  13   6 SW17G28   29.90R
CLAYTON        FAIR      87  48  25 SE15      29.82F

$$
NMZ532>537-290200-
EASTCENTRAL PLAINS

CITY           SKY/WX    TMP DP  RH WIND       PRES   REMARKS
SANTA ROSA     FAIR      94  22   7 W9G17     29.84S
TUCUMCARI      FAIR      98  13   4 SW17      29.74R
CANNON AFB     FAIR      94  24   8 W14       29.84R
CLOVIS AIRPORT FAIR      95  29   9 W13G22    29.83S

$$
NMZ028-029-538-290200-
SOUTHEAST PLAINS

CITY           SKY/WX    TMP DP  RH WIND       PRES   REMARKS
ROSWELL        FAIR     102  37  10 E6        29.77S HX  96
ARTESIA        FAIR     102  30   8 W20G26    29.78R HX  95
CARLSBAD       FAIR     102  32   8 W12       29.76S HX  95
HOBBS          FAIR      93  50  22 SE15G22   29.83S


$$




USA.gov is the U.S. government's official web portal to all federal, state and local government web resources and services.